Weather in Snytkino

Russia / Bryansk Oblast     52°36′00″N   34°40′13″E
temp.,
°C
wind,
m/s
gust,
m/s
humid.,
%
clouds,
%
prec.,
mm/h
press.,
hPa
HPBL,
m
22 april, thu
thu2200:00+4s489280 0.0 1014207
03:00+4s4994100 0.0 1015247
06:00+5s599191 1.6 1015240
09:00+9ssw6107624 1.6 1016484
12:00+13ssw79615 0.0 10161243
15:00+15sw8105653 1.1 10151736
18:00+13sw6116892 1.9 1015866
21:00+9s5138257 2.6 1016304
23 april, fri
fri2300:00+9s6158039 0.0 1016359
03:00+8s5148499 0.1 1015360
06:00+8s6168411 0.0 1014452
09:00+11ssw8127499 0.2 1014829
12:00+11ssw6983100 0.6 10141059
15:00+6wnw5792100 3.6 1015575
18:00+5nw3687100 0.6 1014456
21:00+5w2488100 0.9 1014501
24 april, sat
sat2400:00+4sw3690100 0.1 1014253
03:00+3w379235 0.3 1013170
06:00+1w379114 0.0 1013184
09:00+5w3568100 0.0 1013612
12:00+8w4550100 0.1 10131736
15:00+9w564299 0.2 10122088
18:00+7wnw6867100 0.8 1013928
21:00+3w410765 0.9 1015284
25 april, sun
sun2500:00+1wsw410845 0.0 1015235
03:000sw4108981 0.0 1015252
06:000wsw410915 0.1 1015363
09:00+3wsw7973100 0.1 10151093
12:00+6w71145100 0.7 10152490
15:00+7w794896 0.8 10151910
18:00+6wnw58595 0.1 10151370
21:00+2wsw37764 0.1 1016164
26 april, mon
mon2600:000sw388494 0.0 1016177
03:00−1sw38855 0.0 1016211
06:00−1sw388654 0.0 1016226
09:00+4sw576895 0.0 1015969
12:00+5wsw786987 0.6 10141313
15:00+5w6857100 1.8 10141436
18:00+5wnw686529 0.8 10151166
21:00+1wsw3881100 0.8 1016169